Regional Weather Roundup
Issued by NWS

Home | Current Version | Previous Version | Text Only | Print | Product List | Glossary Off
Versions: 1 2 3 4 5 6 7 8 9 10 11 12 13 14 15 16 17 18 19 20 21 22 23 24 25 26 27 28 29 30 31 32 33 34 35 36 37 38 39 40 41 42 43 44 45 46 47 48 49 50

000
ASUS43 KOAX 231110
RWRNE

WEATHER ROUNDUP FOR NEBRASKA
NATIONAL WEATHER SERVICE OMAHA NE
600 AM CDT SAT MAY 23 2015

NOTES: SATELLITE DATA IS BEING USED TO AUGMENT CLOUD COVER ABOVE
       12000 FEET.
       "FAIR" INDICATES FEW OR NO CLOUDS BELOW 12,000 FEET WITH NO
       SIGNIFICANT WEATHER AND/OR OBSTRUCTIONS TO VISIBILITY.

  * THESE STATIONS DO NOT REPORT WEATHER SUCH AS RAIN...SNOW OR FOG.

NEZ001>004-019>022-054>056-231200-
NEBRASKA PANHANDLE

CITY           SKY/WX    TMP DP  RH WIND       PRES   REMARKS
SCOTTSBLUFF    FOG       46  46 100 E7        30.03F VSB 1/2
ALLIANCE       CLOUDY    47  47 100 SE3       30.03F FOG
CHADRON        CLOUDY    47  45  93 CALM      30.04F
KIMBALL          N/A    N/A N/A N/A MISG        N/A
SIDNEY         FOG       48  47  96 N3        30.04F VSB 3/4
$$

NEZ057>060-069>072-079>082-231200-
SOUTHWEST NEBRASKA

CITY           SKY/WX    TMP DP  RH WIND       PRES   REMARKS
NORTH PLATTE   CLOUDY    53  51  93 SE12      30.04R
IMPERIAL       CLOUDY    52  51  97 SE14      30.03R
LEXINGTON      CLOUDY    54  53  97 SE10      30.09F FOG
MCCOOK         CLOUDY    54  52  93 SE8       30.08S
OGALLALA       CLOUDY    52  51  99 CALM      30.04R
$$

NEZ005>010-023>029-035>040-094-231200-
NORTH CENTRAL NEBRASKA

CITY           SKY/WX    TMP DP  RH WIND       PRES   REMARKS
VALENTINE      LGT RAIN  49  48  97 E8        30.09F FOG
AINSWORTH      DRIZZLE   52  52 100 SE5       30.09S
BROKEN BOW     FOG       53  52  96 SE14      30.07F VSB 3/4
O`NEILL        CLOUDY    53  50  90 SE8       30.13S
ORD            CLOUDY    52  50  93 SE9       30.11S
THEDFORD       CLOUDY    53  52  98 SE7       30.08S FOG
$$

NEZ041-046>049-061>064-073>077-083>087-231200-
SOUTH CENTRAL NEBRASKA

CITY           SKY/WX    TMP DP  RH WIND       PRES   REMARKS
GRAND ISLAND   CLOUDY    53  49  86 SE7       30.15R
AURORA         CLOUDY    53  51  92 SE8       30.15R
HASTINGS       CLOUDY    53  50  89 SE9       30.14R
HEBRON         CLOUDY    54  51  89 SE7       30.16R
HOLDREGE       CLOUDY    53  52  97 S6        30.13R FOG
KEARNEY *      CLOUDY    52  50  93 S10       30.13S VSB 3/4
YORK           CLOUDY    54  50  87 SE7       30.16R
$$

NEZ011>018-030>034-042>045-231200-
NORTHEAST NEBRASKA

CITY           SKY/WX    TMP DP  RH WIND       PRES   REMARKS
NORFOLK        CLOUDY    53  49  86 E6        30.15F
ALBION         CLOUDY    53  48  83 SE6       30.15S
BLAIR          CLOUDY    57  49  74 SE6       30.19S
COLUMBUS *     CLOUDY    55  45  67 SE6       30.19S
FREMONT        CLOUDY    57  50  75 SE3       30.19S
TEKAMAH        CLOUDY    56  51  84 SE7       30.19S
WAYNE          CLOUDY    55  50  85 SE6       30.17F
$$

NEZ050>053-065>068-078-088>093-231200-
SOUTHEAST NEBRASKA

CITY           SKY/WX    TMP DP  RH WIND       PRES   REMARKS
LINCOLN        CLOUDY    57  49  74 SE6       30.18S
OMAHA EPPLEY   CLOUDY    58  51  78 SE6       30.19F
BEATRICE       CLOUDY    56  51  85 SE7       30.17S
FALLS CITY     LGT RAIN  56  52  86 S3        30.19S
NEBRASKA CITY  CLOUDY    55  52  89 CALM      30.19S
PLATTSMOUTH    CLOUDY    55  50  82 SE5       30.19S
$$

NEZ044-045-051>053-067-231200-
OMAHA AREA

CITY           SKY/WX    TMP DP  RH WIND       PRES   REMARKS
OMAHA EPPLEY   CLOUDY    58  51  78 SE6       30.19F
BLAIR          CLOUDY    57  49  74 SE6       30.19S
FREMONT        CLOUDY    57  50  75 SE3       30.19S
MILLARD        CLOUDY    58  51  76 CALM      30.19S
OFFUTT AFB     MOCLDY    56  51  84 E2        30.19S
PLATTSMOUTH    CLOUDY    55  50  82 SE5       30.19S
WAHOO          CLOUDY    56  50  81 SE5       30.19S
$$



USA.gov is the U.S. government's official web portal to all federal, state and local government web resources and services.